Location: Wald
(31.7579°N, 86.6655°W)
Time: 00:42:51
(UTC+00:00)

Cosmos 1140 Rocket - Pass Details

Date: 14 July 2020
Orbit: 744 x 768 km, 74.1° (Epoch: 12 August)

Event Time Altitude Azimuth Distance (km) Brightness Sun altitude
Exits shadow 07:32:17 45° 355° (N) 1,035 4.4 -31.6°
Drops below altitude 10° 07:35:56 10° 11° (N) 2,299 6.8 -31.2°
Sets 07:38:20 0° 14° (NNE) 3,232 7.8 -31.0°
